Retour au catalogue

STARLINK-3234

ActifCommunicationsVLEO
NORAD 50815·PAYLOAD·🇺🇸 United States

Lancé Jan 6, 2022 depuis Cape Canaveral Space Force Station

Loading…

Prochains Passages (prochaines 24 heures)

TLE

FraisSource: CelesTrak SupGP

Époque: Sep 14, 2026, 21:09 UTC

1 50815C 22001N   26257.88173611  .00003053  00000+0  98178-4 0  2575
2 50815  53.1596  29.9550 0001166  72.7497 254.8479 15.31696897    15

Suivez STARLINK-3234 en temps réel avec AllMySat

Download on the App Store